Tracking 19489 objects as of 22-Jan-2019
HD Live streaming from Space Station
objects crossing your sky now

FENGYUN 1A

Track FENGYUN 1A now!
10-day predictions
FENGYUN 1A is classified as:


NORAD ID: 19467
Int'l Code: 1988-080A
Perigee: 880.5 km
Apogee: 900.1 km
Inclination: 99.2 °
Period: 102.6 minutes
Semi major axis: 7261 km
RCS: 2.4571 m2 (large)
Launch date: September 6, 1988
Source: People's Republic of China (PRC)
Launch site: Taiyaun Space Center, China (TSC)
aabbcc
Your satellite tracking list
Your tracking list is empty




NASA's NSSDC Master Catalog

Two Line Element Set (TLE):
1 19467U 88080A   19021.55731540 +.00000029 +00000-0 +48563-4 0  9995
2 19467 099.2307 013.4056 0013465 250.8288 109.1420 14.03076097554727
Source of the keplerian elements: AFSPC